Regional Weather Roundup
Issued by NWS Northern Indiana

Home | Current Version | Previous Version | Text Only | Print | Product List | Glossary On
Versions: 1 2 3 4 5 6 7 8 9 10 11 12 13 14 15 16 17 18 19 20 21 22 23 24 25 26 27 28 29 30 31 32 33 34 35 36 37 38 39 40 41 42 43 44 45 46 47 48 49 50
000
ASUS43 KIWX 302310
RWRIWX

KIWX WEATHER ROUNDUP
NATIONAL WEATHER SERVICE NORTHERN INDIANA
700 PM EDT SAT JUL 30 2016

NOTE: "FAIR" INDICATES FEW OR NO CLOUDS BELOW 12,000 FEET WITH NO
SIGNIFICANT WEATHER AND/OR OBSTRUCTIONS TO VISIBILITY.

* THESE STATIONS ARE NOT UNDER NWS QUALITY CONTROL. THEY ALSO MAY NOT
  REPORT WEATHER SUCH AS PRECIPITATION OR FOG.

INZ001>027-310000-
NORTHERN INDIANA

CITY           SKY/WX    TMP DP  RH WIND       PRES   REMARKS
GARY*          PTSUNNY   75  68  78 NE7       29.98F
VALPARAISO     CLOUDY    74  65  73 N10       29.97F
MICHIGAN CITY* CLOUDY    72  68  88 MISG      29.98S
LAPORTE*       MOSUNNY   76  70  83 NW9       29.97F
KNOX*          CLOUDY    73  61  64 N8        29.95S
SOUTH BEND     CLOUDY    76  67  73 N7        29.95F
GOSHEN         SUNNY     78  66  66 NE7       29.94F
MONTICELLO*    MOSUNNY   77  67  70 W3        29.94S
LOGANSPORT*    MOSUNNY   79  68  69 SW8       29.95S
ROCHESTER*     MOSUNNY   81  70  69 CALM      29.95S
WARSAW*        CLOUDY    77  66  69 NE5       29.94S
ANGOLA*          N/A     75  70  83 N6        29.95F
FORT WAYNE     CLOUDY    80  67  64 NW3       29.94F
HUNTINGTON*    LGT RAIN  76  72  87 CALM      29.94S
PERU/GRISSOM   MOSUNNY   80  69  70 W7        29.93R
MARION*        MOSUNNY   79  67  67 W5        29.95S

$$
INZ028>050-310000-
CENTRAL INDIANA

CITY           SKY/WX    TMP DP  RH WIND       PRES   REMARKS
LAFAYETTE      MOSUNNY   81  67  62 W7        29.93F
KOKOMO*        SUNNY     82  64  54 W9        29.94S
MUNCIE*        MOSUNNY   83  66  56 NW10      29.94S
INDIANAPOLIS   MOSUNNY   83  63  50 W12       29.95S

$$
MIZ043>046-050>051-056>058-064>065-071>073-077>080-310000-
SOUTHWEST LOWER MICHIGAN

CITY           SKY/WX    TMP DP  RH WIND       PRES   REMARKS
BATTLE CREEK   PTSUNNY   71  67  87 NE10      29.98F
BENTON HARBOR  PTSUNNY   75  65  70 NE7       29.96S
COLDWATER*     SUNNY     74  69  82 N8        29.96F
HILLSDALE*     CLOUDY    74  69  86 CALM      29.96S
HOLLAND        CLOUDY    72  64  76 NE6       30.00S
GRAND RAPIDS   CLOUDY    70  64  81 E8        30.01S
KALAMAZOO      PTSUNNY   72  65  78 N10       29.98S
STURGIS*       CLOUDY    76  68  78 N6        29.96S
THREE RIVERS*  FAIR      76  66  71 NE6       29.97S

$$
OHZ001>008-015>018-024>025-310000-
NORTHWEST OHIO

CITY           SKY/WX    TMP DP  RH WIND       PRES   REMARKS
DEFIANCE       SUNNY     82  67  60 VRB3      29.93F
FINDLAY        SUNNY     83  65  54 NE6       29.92F
TOLEDO EXPRESS PTSUNNY   75  70  84 E13       29.94S
TOLEDO METCALF PTSUNNY   76  71  85 E8        29.94F
LIMA           SUNNY     81  68  64 N6        29.94S

$$
AND FOR LAKE MICHIGAN COASTAL AND OPEN LAKE BUOY OBSERVATIONS

STATION/POSITION TEMP    WIND        PRES    VSBY  WAVE
                 AIR SEA DIR/SP/G                  HT/PER
                 (F)     (DEG/KT/KT) (MB)    (MI)  (FT/S)
CALUMET HARBOR    72                   N/A
MICHIGAN CITY     70     360/ 12/ 13   N/A
BURNS HARBOR      70      30/ 12/ 14 1015.6S
SAINT JOSEPH      72      20/ 11/ 15 1014.9F
SOUTH LAKE BUOY   72 74   30/ 12/ 14 1015.0F         1/ 4
4 MI NW BRIDGMAN  71 71   10/ 14/ 16 1014.2F         3/ 3
MICHIGAN CITY     72 73   10/ 10/ 14   N/A           3/ 4

$$
&&



USA.gov is the U.S. government's official web portal to all federal, state and local government web resources and services.